Location: Costa Valle Imagna
(45.8000°N, 9.5000°E)
Time: 09:53:32
(UTC+00:00)

USA 215 - Pass Details

Date: 17 February 2020
Orbit: 1098 x 1110 km, 123.0° (Epoch: 08 March)

Event Time Altitude Azimuth Distance (km) Brightness Sun altitude
Rises 04:53:58 0° 70° (ENE) 3,918 7.5 -16.0°
Reaches altitude 10° 04:56:41 10° 61° (ENE) 2,961 6.4 -15.5°
Maximum altitude 05:02:21 33° 0° (N) 1,759 4.3 -14.5°
Enters shadow 05:07:21 13° 303° (WNW) 2,736 4.8 -13.7°
